Time,TemperatureF,DewpointF,PressureIn,WindDirection,WindDirectionDegrees,WindSpeedMPH,WindSpeedGustMPH,Humidity,HourlyPrecipIn,Conditions,Clouds,dailyrainin,SoftwareType,DateUTC
2013-05-09 00:00:00,64.2,57.9,29.95,SW,216,0.0,0.0,80,0.00,,---,0.00,VWS V14.01,2013-05-09 05:00:00,
2013-05-09 00:01:00,64.1,57.8,29.95,SW,216,0.0,0.0,80,0.00,,---,0.00,VWS V14.01,2013-05-09 05:01:00,
2013-05-09 00:06:00,63.9,58.0,29.95,SW,216,0.0,0.0,81,0.00,,---,0.00,VWS V14.01,2013-05-09 05:06:00,
2013-05-09 00:11:00,63.8,57.9,29.94,SW,216,0.0,0.0,81,0.00,,---,0.00,VWS V14.01,2013-05-09 05:11:00,
2013-05-09 00:16:00,63.7,57.8,29.94,SW,216,0.0,0.0,81,0.00,,---,0.00,VWS V14.01,2013-05-09 05:16:00,
2013-05-09 00:21:00,63.5,57.9,29.94,SW,216,0.0,0.0,82,0.00,,---,0.00,VWS V14.01,2013-05-09 05:21:00,
2013-05-09 00:26:00,63.4,57.8,29.94,SW,216,0.0,0.0,82,0.00,,---,0.00,VWS V14.01,2013-05-09 05:26:00,
2013-05-09 00:30:00,63.3,57.7,29.94,SW,216,0.0,0.0,82,0.00,,---,0.00,VWS V14.01,2013-05-09 05:30:00,
2013-05-09 00:31:00,63.2,57.6,29.94,SW,216,0.0,0.0,82,0.00,,---,0.00,VWS V14.01,2013-05-09 05:31:00,
2013-05-09 00:36:00,63.1,58.2,29.94,SW,216,0.0,0.0,84,0.00,,---,0.00,VWS V14.01,2013-05-09 05:36:00,
2013-05-09 00:41:00,63.1,58.2,29.94,SW,216,0.0,0.0,84,0.00,,---,0.00,VWS V14.01,2013-05-09 05:41:00,
2013-05-09 00:46:00,63.1,58.2,29.94,SW,216,0.0,0.0,84,0.00,,---,0.00,VWS V14.01,2013-05-09 05:46:00,
2013-05-09 00:51:00,63.1,58.5,29.94,SW,216,0.0,0.0,85,0.00,,---,0.00,VWS V14.01,2013-05-09 05:51:00,
2013-05-09 00:56:00,63.1,58.5,29.95,SW,216,0.0,0.0,85,0.00,,---,0.00,VWS V14.01,2013-05-09 05:56:00,
2013-05-09 01:00:00,63.1,58.5,29.94,SW,216,0.0,0.0,85,0.00,,---,0.00,VWS V14.01,2013-05-09 06:00:00,
2013-05-09 01:01:00,63.0,58.4,29.94,SW,216,0.0,0.0,85,0.00,,---,0.00,VWS V14.01,2013-05-09 06:01:00,
2013-05-09 01:06:00,63.0,58.1,29.94,SW,216,0.0,0.0,84,0.00,,---,0.00,VWS V14.01,2013-05-09 06:06:00,
2013-05-09 01:11:00,63.0,58.4,29.94,SW,216,0.0,0.0,85,0.00,,---,0.00,VWS V14.01,2013-05-09 06:11:00,
2013-05-09 01:16:00,63.0,57.8,29.93,SW,216,0.0,0.0,83,0.00,,---,0.00,VWS V14.01,2013-05-09 06:16:00,
2013-05-09 01:21:00,63.1,57.9,29.93,SW,216,0.0,0.0,83,0.00,,---,0.00,VWS V14.01,2013-05-09 06:21:00,
2013-05-09 01:26:00,63.1,58.2,29.93,SW,216,0.0,0.0,84,0.00,,---,0.00,VWS V14.01,2013-05-09 06:26:00,
2013-05-09 01:30:00,63.2,58.0,29.93,SW,216,0.0,0.0,83,0.00,,---,0.00,VWS V14.01,2013-05-09 06:30:00,
2013-05-09 01:31:00,63.2,58.0,29.93,SW,216,0.0,0.0,83,0.00,,---,0.00,VWS V14.01,2013-05-09 06:31:00,
2013-05-09 01:36:00,63.4,58.5,29.93,SW,216,0.0,0.0,84,0.00,,---,0.00,VWS V14.01,2013-05-09 06:36:00,
2013-05-09 01:41:00,63.4,58.5,29.93,SW,216,0.0,0.0,84,0.00,,---,0.00,VWS V14.01,2013-05-09 06:41:00,
2013-05-09 01:46:00,63.3,58.7,29.93,SW,216,0.0,0.0,85,0.00,,---,0.00,VWS V14.01,2013-05-09 06:46:00,
2013-05-09 01:51:00,63.1,58.5,29.93,SW,216,0.0,0.0,85,0.00,,---,0.00,VWS V14.01,2013-05-09 06:51:00,
2013-05-09 01:56:00,63.0,58.4,29.93,SW,216,0.0,0.0,85,0.00,,---,0.00,VWS V14.01,2013-05-09 06:56:00,
2013-05-09 02:00:00,62.9,58.7,29.93,SW,216,0.0,0.0,86,0.00,,---,0.00,VWS V14.01,2013-05-09 07:00:00,
2013-05-09 02:01:00,62.8,58.2,29.93,SW,216,0.0,0.0,85,0.00,,---,0.00,VWS V14.01,2013-05-09 07:01:00,
2013-05-09 02:06:00,62.8,58.9,29.93,SW,216,0.0,0.0,87,0.00,,---,0.00,VWS V14.01,2013-05-09 07:06:00,
2013-05-09 02:11:00,62.7,58.8,29.93,SW,216,0.0,0.0,87,0.00,,---,0.00,VWS V14.01,2013-05-09 07:11:00,
2013-05-09 02:16:00,62.6,58.7,29.92,SW,216,0.0,0.0,87,0.00,,---,0.00,VWS V14.01,2013-05-09 07:16:00,
2013-05-09 02:21:00,62.5,58.6,29.92,SW,216,0.0,0.0,87,0.00,,---,0.00,VWS V14.01,2013-05-09 07:21:00,
2013-05-09 02:26:00,62.4,58.5,29.92,SW,216,0.0,0.0,87,0.00,,---,0.00,VWS V14.01,2013-05-09 07:26:00,
2013-05-09 02:30:00,62.2,58.3,29.92,SW,216,0.0,0.0,87,0.00,,---,0.00,VWS V14.01,2013-05-09 07:30:00,
2013-05-09 02:31:00,62.0,58.1,29.92,SW,216,0.0,0.0,87,0.00,,---,0.00,VWS V14.01,2013-05-09 07:31:00,
2013-05-09 02:36:00,61.9,58.0,29.92,SW,216,0.0,0.0,87,0.00,,---,0.00,VWS V14.01,2013-05-09 07:36:00,
2013-05-09 02:41:00,61.9,58.3,29.92,SW,216,0.0,0.0,88,0.00,,---,0.00,VWS V14.01,2013-05-09 07:41:00,
2013-05-09 02:46:00,62.0,58.7,29.92,SW,216,0.0,2.0,89,0.00,,---,0.00,VWS V14.01,2013-05-09 07:46:00,
2013-05-09 02:51:00,62.0,58.7,29.92,SW,216,0.0,2.0,89,0.00,,---,0.00,VWS V14.01,2013-05-09 07:51:00,
2013-05-09 02:56:00,62.0,58.4,29.92,SW,216,0.0,2.0,88,0.00,,---,0.00,VWS V14.01,2013-05-09 07:56:00,
2013-05-09 03:00:00,62.0,58.4,29.92,SW,216,0.0,2.0,88,0.00,,---,0.00,VWS V14.01,2013-05-09 08:00:00,
2013-05-09 03:01:00,62.0,58.7,29.92,SW,216,0.0,0.0,89,0.00,,---,0.00,VWS V14.01,2013-05-09 08:01:00,
2013-05-09 03:06:00,61.9,58.6,29.93,SW,216,0.0,0.0,89,0.00,,---,0.00,VWS V14.01,2013-05-09 08:06:00,
2013-05-09 03:11:00,61.9,58.6,29.92,SW,216,0.0,1.0,89,0.00,,---,0.00,VWS V14.01,2013-05-09 08:11:00,
2013-05-09 03:16:00,61.8,58.8,29.92,SW,216,0.0,1.0,90,0.00,,---,0.00,VWS V14.01,2013-05-09 08:16:00,
2013-05-09 03:21:00,61.8,58.8,29.92,SW,216,0.0,1.0,90,0.00,,---,0.00,VWS V14.01,2013-05-09 08:21:00,
2013-05-09 03:26:00,61.7,58.7,29.92,SW,216,2.0,2.0,90,0.00,,---,0.00,VWS V14.01,2013-05-09 08:26:00,
2013-05-09 03:30:00,61.5,58.2,29.92,SW,216,0.0,2.0,89,0.00,,---,0.00,VWS V14.01,2013-05-09 08:30:00,
2013-05-09 03:31:00,61.4,58.1,29.92,SW,216,0.0,0.0,89,0.00,,---,0.00,VWS V14.01,2013-05-09 08:31:00,
2013-05-09 03:36:00,61.3,58.3,29.92,SW,216,0.0,0.0,90,0.00,,---,0.00,VWS V14.01,2013-05-09 08:36:00,
2013-05-09 03:41:00,61.3,58.3,29.92,SW,216,0.0,0.0,90,0.00,,---,0.00,VWS V14.01,2013-05-09 08:41:00,
2013-05-09 03:46:00,61.3,58.3,29.92,SW,216,0.0,0.0,90,0.00,,---,0.00,VWS V14.01,2013-05-09 08:46:00,
2013-05-09 03:51:00,61.5,58.5,29.92,SW,216,0.0,0.0,90,0.00,,---,0.00,VWS V14.01,2013-05-09 08:51:00,
2013-05-09 03:56:00,61.5,58.5,29.92,SW,216,0.0,0.0,90,0.00,,---,0.00,VWS V14.01,2013-05-09 08:56:00,
2013-05-09 04:00:00,61.5,58.5,29.92,SW,216,0.0,0.0,90,0.00,,---,0.00,VWS V14.01,2013-05-09 09:00:00,
2013-05-09 04:01:00,61.5,58.5,29.92,SW,216,0.0,0.0,90,0.00,,---,0.00,VWS V14.01,2013-05-09 09:01:00,
2013-05-09 04:06:00,61.4,58.5,29.92,SW,216,0.0,4.0,90,0.00,,---,0.00,VWS V14.01,2013-05-09 09:06:00,
2013-05-09 04:11:00,61.4,58.5,29.91,SW,216,0.0,4.0,90,0.00,,---,0.00,VWS V14.01,2013-05-09 09:11:00,
2013-05-09 04:16:00,61.6,59.0,29.91,SW,216,1.0,4.0,91,0.00,,---,0.00,VWS V14.01,2013-05-09 09:16:00,
2013-05-09 04:21:00,61.8,58.8,29.91,SW,216,0.0,4.0,90,0.00,,---,0.00,VWS V14.01,2013-05-09 09:21:00,
2013-05-09 04:26:00,61.7,58.7,29.90,SW,216,0.0,4.0,90,0.00,,---,0.00,VWS V14.01,2013-05-09 09:26:00,
2013-05-09 04:30:00,61.6,58.3,29.90,SW,216,0.0,4.0,89,0.00,,---,0.00,VWS V14.01,2013-05-09 09:30:00,
2013-05-09 04:31:00,61.6,58.3,29.91,SW,216,0.0,0.0,89,0.00,,---,0.00,VWS V14.01,2013-05-09 09:31:00,
2013-05-09 04:36:00,61.4,58.5,29.91,SW,216,0.0,0.0,90,0.00,,---,0.00,VWS V14.01,2013-05-09 09:36:00,
2013-05-09 04:40:00,61.3,58.3,29.91,SW,216,0.0,0.0,90,0.00,,---,0.00,VWS V14.01,2013-05-09 09:40:00,
2013-05-09 04:45:00,61.1,58.2,29.91,SW,216,0.0,0.0,90,0.00,,---,0.00,VWS V14.01,2013-05-09 09:45:00,
2013-05-09 04:50:00,61.0,58.0,29.91,SW,216,0.0,0.0,90,0.00,,---,0.00,VWS V14.01,2013-05-09 09:50:00,
2013-05-09 04:55:00,61.1,58.2,29.91,SW,216,0.0,0.0,90,0.00,,---,0.00,VWS V14.01,2013-05-09 09:55:00,
2013-05-09 05:00:00,61.5,58.8,29.91,SW,216,0.0,0.0,91,0.00,,---,0.00,VWS V14.01,2013-05-09 10:00:00,
2013-05-09 05:05:00,61.5,58.5,29.91,SW,216,0.0,4.0,90,0.00,,---,0.00,VWS V14.01,2013-05-09 10:05:00,
2013-05-09 05:10:00,61.4,58.5,29.91,SW,216,0.0,4.0,90,0.00,,---,0.00,VWS V14.01,2013-05-09 10:10:00,
2013-05-09 05:15:00,61.3,58.3,29.92,SW,216,0.0,4.0,90,0.00,,---,0.00,VWS V14.01,2013-05-09 10:15:00,
2013-05-09 05:20:00,61.1,58.2,29.92,SW,216,0.0,4.0,90,0.00,,---,0.00,VWS V14.01,2013-05-09 10:20:00,
2013-05-09 05:25:00,61.1,58.5,29.92,SW,216,1.0,4.0,91,0.00,,---,0.00,VWS V14.01,2013-05-09 10:25:00,
2013-05-09 05:30:00,61.2,58.6,29.92,SW,216,0.0,0.0,91,0.00,,---,0.00,VWS V14.01,2013-05-09 10:30:00,
2013-05-09 05:35:00,61.1,58.5,29.92,SW,216,0.0,1.0,91,0.00,,---,0.00,VWS V14.01,2013-05-09 10:35:00,
2013-05-09 05:40:00,60.9,58.6,29.93,SW,216,0.0,2.0,92,0.00,,---,0.00,VWS V14.01,2013-05-09 10:40:00,
2013-05-09 05:45:00,60.8,58.5,29.93,SW,216,0.0,2.0,92,0.00,,---,0.00,VWS V14.01,2013-05-09 10:45:00,
2013-05-09 05:50:00,60.9,58.6,29.92,SW,216,0.0,2.0,92,0.01,,---,0.01,VWS V14.01,2013-05-09 10:50:00,
2013-05-09 05:55:00,60.9,58.9,29.93,SW,216,0.0,2.0,93,0.01,,---,0.01,VWS V14.01,2013-05-09 10:55:00,
2013-05-09 06:00:00,60.9,58.9,29.93,SW,216,0.0,0.0,93,0.01,,---,0.01,VWS V14.01,2013-05-09 11:00:00,
2013-05-09 06:05:00,60.9,58.9,29.93,SW,216,0.0,0.0,93,0.01,,---,0.01,VWS V14.01,2013-05-09 11:05:00,
2013-05-09 06:10:00,60.8,58.8,29.93,SW,216,0.0,0.0,93,0.01,,---,0.01,VWS V14.01,2013-05-09 11:10:00,
2013-05-09 06:15:00,60.7,58.7,29.93,SW,216,0.0,0.0,93,0.02,,---,0.02,VWS V14.01,2013-05-09 11:15:00,
2013-05-09 06:20:00,60.7,59.0,29.93,SW,216,0.0,0.0,94,0.02,,---,0.02,VWS V14.01,2013-05-09 11:20:00,
2013-05-09 06:25:00,60.6,58.9,29.93,SW,216,0.0,0.0,94,0.03,,---,0.03,VWS V14.01,2013-05-09 11:25:00,
2013-05-09 06:30:00,60.5,58.8,29.93,SW,216,0.0,0.0,94,0.04,,---,0.04,VWS V14.01,2013-05-09 11:30:00,
2013-05-09 06:35:00,60.4,58.7,29.94,SW,216,0.0,0.0,94,0.04,,---,0.04,VWS V14.01,2013-05-09 11:35:00,
2013-05-09 06:40:00,60.2,58.5,29.94,SW,216,0.0,2.0,94,0.04,,---,0.04,VWS V14.01,2013-05-09 11:40:00,
2013-05-09 06:45:00,60.2,58.8,29.95,SW,232,0.0,9.0,95,0.04,,---,0.04,VWS V14.01,2013-05-09 11:45:00,
2013-05-09 06:50:00,60.1,58.7,29.95,SW,216,0.0,9.0,95,0.04,,---,0.04,VWS V14.01,2013-05-09 11:50:00,
2013-05-09 06:55:00,60.2,58.8,29.95,NW,309,3.0,9.0,95,0.05,,---,0.05,VWS V14.01,2013-05-09 11:55:00,
2013-05-09 07:00:00,60.3,58.9,29.95,WSW,255,0.0,1.0,95,0.04,,---,0.05,VWS V14.01,2013-05-09 12:00:00,
2013-05-09 07:05:00,60.3,58.9,29.94,WSW,254,0.0,4.0,95,0.04,,---,0.05,VWS V14.01,2013-05-09 12:05:00,
2013-05-09 07:10:00,60.3,58.9,29.95,WSW,254,0.0,4.0,95,0.04,,---,0.05,VWS V14.01,2013-05-09 12:10:00,
2013-05-09 07:15:00,60.3,58.9,29.95,WSW,254,0.0,4.0,95,0.04,,---,0.05,VWS V14.01,2013-05-09 12:15:00,
2013-05-09 07:20:00,60.3,58.9,29.95,WSW,254,0.0,4.0,95,0.05,,---,0.06,VWS V14.01,2013-05-09 12:20:00,
2013-05-09 07:25:00,60.3,58.9,29.95,WSW,254,0.0,4.0,95,0.05,,---,0.06,VWS V14.01,2013-05-09 12:25:00,
2013-05-09 07:30:00,60.3,58.9,29.95,WSW,254,0.0,0.0,95,0.02,,---,0.06,VWS V14.01,2013-05-09 12:30:00,
2013-05-09 07:35:00,60.2,58.8,29.95,WSW,254,0.0,0.0,95,0.02,,---,0.06,VWS V14.01,2013-05-09 12:35:00,
2013-05-09 07:40:00,60.2,58.8,29.94,WSW,254,0.0,0.0,95,0.02,,---,0.06,VWS V14.01,2013-05-09 12:40:00,
2013-05-09 07:45:00,60.3,58.9,29.94,WSW,254,0.0,0.0,95,0.02,,---,0.06,VWS V14.01,2013-05-09 12:45:00,
2013-05-09 07:50:00,60.3,58.9,29.94,WSW,254,0.0,0.0,95,0.02,,---,0.06,VWS V14.01,2013-05-09 12:50:00,
2013-05-09 07:55:00,60.2,58.8,29.93,WSW,254,0.0,0.0,95,0.02,,---,0.06,VWS V14.01,2013-05-09 12:55:00,
2013-05-09 08:00:00,60.2,58.8,29.93,WSW,254,1.0,2.0,95,0.02,,---,0.07,VWS V14.01,2013-05-09 13:00:00,
2013-05-09 08:05:00,60.1,58.7,29.91,NE,52,1.0,5.0,95,0.03,,---,0.08,VWS V14.01,2013-05-09 13:05:00,
2013-05-09 08:10:00,60.1,58.7,29.91,ENE,64,2.0,5.0,95,0.04,,---,0.09,VWS V14.01,2013-05-09 13:10:00,
2013-05-09 08:15:00,60.1,59.0,29.91,East,97,2.0,5.0,96,0.04,,---,0.09,VWS V14.01,2013-05-09 13:15:00,
2013-05-09 08:20:00,60.3,59.2,29.91,ESE,115,1.0,6.0,96,0.04,,---,0.09,VWS V14.01,2013-05-09 13:20:00,
2013-05-09 08:25:00,60.5,59.4,29.91,East,92,2.0,6.0,96,0.04,,---,0.09,VWS V14.01,2013-05-09 13:25:00,
2013-05-09 08:30:00,60.5,59.4,29.91,ESE,113,0.0,5.0,96,0.03,,---,0.09,VWS V14.01,2013-05-09 13:30:00,
2013-05-09 08:35:00,60.8,59.7,29.91,ESE,123,4.0,7.0,96,0.03,,---,0.09,VWS V14.01,2013-05-09 13:35:00,
2013-05-09 08:40:00,60.9,59.8,29.91,ESE,120,2.0,7.0,96,0.03,,---,0.09,VWS V14.01,2013-05-09 13:40:00,
2013-05-09 08:45:00,61.1,60.0,29.91,ESE,117,3.0,8.0,96,0.03,,---,0.09,VWS V14.01,2013-05-09 13:45:00,
2013-05-09 08:50:00,61.1,60.0,29.91,SE,124,6.0,9.0,96,0.03,,---,0.09,VWS V14.01,2013-05-09 13:50:00,
2013-05-09 08:55:00,61.1,60.0,29.92,SSE,157,4.0,9.0,96,0.03,,---,0.09,VWS V14.01,2013-05-09 13:55:00,
2013-05-09 09:00:00,61.2,60.0,29.92,SE,134,5.0,5.0,96,0.02,,---,0.09,VWS V14.01,2013-05-09 14:00:00,
2013-05-09 09:05:00,61.2,60.0,29.91,SE,131,3.0,8.0,96,0.02,,---,0.09,VWS V14.01,2013-05-09 14:05:00,
2013-05-09 09:10:00,61.3,59.9,29.90,ESE,117,5.0,10.0,95,0.02,,---,0.09,VWS V14.01,2013-05-09 14:10:00,
2013-05-09 09:15:00,61.4,60.0,29.90,SE,130,0.0,10.0,95,0.02,,---,0.09,VWS V14.01,2013-05-09 14:15:00,
2013-05-09 09:20:00,62.1,61.0,29.91,SE,134,5.0,10.0,96,0.02,,---,0.09,VWS V14.01,2013-05-09 14:20:00,
2013-05-09 09:25:00,63.2,62.0,29.91,SE,126,6.0,13.0,96,0.02,,---,0.09,VWS V14.01,2013-05-09 14:25:00,
2013-05-09 09:30:00,63.8,62.3,29.91,SE,133,2.0,9.0,95,0.00,,---,0.09,VWS V14.01,2013-05-09 14:30:00,
2013-05-09 09:35:00,64.3,62.2,29.91,ESE,119,2.0,11.0,93,0.00,,---,0.09,VWS V14.01,2013-05-09 14:35:00,
2013-05-09 09:40:00,64.9,62.5,29.90,SE,142,7.0,11.0,92,0.00,,---,0.09,VWS V14.01,2013-05-09 14:40:00,
2013-05-09 09:45:00,65.4,62.4,29.90,ESE,113,5.0,11.0,90,0.00,,---,0.09,VWS V14.01,2013-05-09 14:45:00,
2013-05-09 09:50:00,65.8,62.5,29.90,SE,146,11.0,11.0,89,0.00,,---,0.09,VWS V14.01,2013-05-09 14:50:00,
2013-05-09 09:55:00,65.7,62.0,29.90,SSE,162,4.0,13.0,88,0.00,,---,0.09,VWS V14.01,2013-05-09 14:55:00,
2013-05-09 10:00:00,65.9,62.6,29.90,SE,132,7.0,8.0,89,0.00,,---,0.09,VWS V14.01,2013-05-09 15:00:00,
2013-05-09 10:05:00,65.9,61.9,29.90,SSE,154,0.0,15.0,87,0.00,,---,0.09,VWS V14.01,2013-05-09 15:05:00,
2013-05-09 10:10:00,65.7,62.0,29.90,SE,141,6.0,15.0,88,0.00,,---,0.09,VWS V14.01,2013-05-09 15:10:00,
2013-05-09 10:15:00,65.6,61.6,29.90,SE,132,7.0,15.0,87,0.00,,---,0.09,VWS V14.01,2013-05-09 15:15:00,
2013-05-09 10:20:00,65.7,61.4,29.89,SE,138,5.0,15.0,86,0.00,,---,0.09,VWS V14.01,2013-05-09 15:20:00,
2013-05-09 10:25:00,65.9,61.9,29.89,SSE,147,0.0,15.0,87,0.00,,---,0.09,VWS V14.01,2013-05-09 15:25:00,
2013-05-09 10:30:00,66.3,61.7,29.89,SE,143,2.0,6.0,85,0.00,,---,0.09,VWS V14.01,2013-05-09 15:30:00,
2013-05-09 10:35:00,66.6,61.6,29.89,SE,140,0.0,13.0,84,0.00,,---,0.09,VWS V14.01,2013-05-09 15:35:00,
2013-05-09 10:40:00,66.7,61.7,29.89,SSE,153,12.0,13.0,84,0.00,,---,0.09,VWS V14.01,2013-05-09 15:40:00,
2013-05-09 10:45:00,67.0,61.7,29.88,SSE,151,5.0,13.0,83,0.00,,---,0.09,VWS V14.01,2013-05-09 15:45:00,
2013-05-09 10:50:00,67.8,62.5,29.89,SE,145,6.0,13.0,83,0.00,,---,0.09,VWS V14.01,2013-05-09 15:50:00,
2013-05-09 10:55:00,68.3,62.2,29.88,South,173,6.0,13.0,81,0.00,,---,0.09,VWS V14.01,2013-05-09 15:55:00,
2013-05-09 11:00:00,68.9,62.1,29.88,SSE,154,2.0,12.0,79,0.00,,---,0.09,VWS V14.01,2013-05-09 16:00:00,
2013-05-09 11:05:00,69.2,61.3,29.88,SE,132,4.0,12.0,76,0.00,,---,0.09,VWS V14.01,2013-05-09 16:05:00,
2013-05-09 11:10:00,69.1,61.2,29.87,SE,125,10.0,12.0,76,0.00,,---,0.09,VWS V14.01,2013-05-09 16:10:00,
2013-05-09 11:15:00,69.4,61.1,29.88,South,173,4.0,16.0,75,0.00,,---,0.09,VWS V14.01,2013-05-09 16:15:00,
2013-05-09 11:20:00,69.4,60.8,29.88,SE,145,7.0,16.0,74,0.00,,---,0.09,VWS V14.01,2013-05-09 16:20:00,
2013-05-09 11:25:00,69.3,61.0,29.88,ESE,121,5.0,16.0,75,0.00,,---,0.09,VWS V14.01,2013-05-09 16:25:00,
2013-05-09 11:30:00,69.2,60.6,29.89,SE,142,4.0,11.0,74,0.00,,---,0.09,VWS V14.01,2013-05-09 16:30:00,
2013-05-09 11:35:00,69.0,60.0,29.88,SE,136,7.0,13.0,73,0.00,,---,0.09,VWS V14.01,2013-05-09 16:35:00,
2013-05-09 11:40:00,68.7,60.1,29.88,SE,142,11.0,14.0,74,0.00,,---,0.09,VWS V14.01,2013-05-09 16:40:00,
2013-05-09 11:45:00,68.4,60.2,29.88,SSE,158,6.0,15.0,75,0.00,,---,0.09,VWS V14.01,2013-05-09 16:45:00,
2013-05-09 11:50:00,68.1,60.3,29.88,SSE,157,3.0,15.0,76,0.00,,---,0.09,VWS V14.01,2013-05-09 16:50:00,
2013-05-09 11:55:00,67.9,59.7,29.89,SE,135,10.0,20.0,75,0.00,,---,0.09,VWS V14.01,2013-05-09 16:55:00,
2013-05-09 12:00:00,67.7,59.1,29.89,SSE,150,4.0,9.0,74,0.00,,---,0.09,VWS V14.01,2013-05-09 17:00:00,
2013-05-09 12:05:00,67.6,59.8,29.89,SSE,161,5.0,12.0,76,0.00,,---,0.09,VWS V14.01,2013-05-09 17:05:00,
2013-05-09 12:10:00,67.4,60.0,29.90,South,175,9.0,16.0,77,0.00,,---,0.09,VWS V14.01,2013-05-09 17:10:00,
2013-05-09 12:15:00,67.0,60.6,29.90,SSE,153,7.0,19.0,80,0.01,,---,0.10,VWS V14.01,2013-05-09 17:15:00,
2013-05-09 12:20:00,66.0,60.7,29.91,SSE,151,11.0,22.0,83,0.02,,---,0.11,VWS V14.01,2013-05-09 17:20:00,
2013-05-09 12:25:00,64.7,60.1,29.91,SSE,148,13.0,22.0,85,0.04,,---,0.13,VWS V14.01,2013-05-09 17:25:00,
2013-05-09 12:30:00,63.7,60.1,29.90,SE,145,10.0,10.0,88,0.07,,---,0.16,VWS V14.01,2013-05-09 17:30:00,
2013-05-09 12:35:00,63.1,60.1,29.90,South,180,11.0,14.0,90,0.08,,---,0.17,VWS V14.01,2013-05-09 17:35:00,
2013-05-09 12:40:00,62.9,60.5,29.90,SSE,153,9.0,14.0,92,0.09,,---,0.18,VWS V14.01,2013-05-09 17:40:00,
2013-05-09 12:45:00,62.8,60.5,29.89,SE,140,6.0,14.0,92,0.10,,---,0.19,VWS V14.01,2013-05-09 17:45:00,
2013-05-09 12:50:00,62.4,60.3,29.89,SE,130,2.0,14.0,93,0.11,,---,0.20,VWS V14.01,2013-05-09 17:50:00,
2013-05-09 12:55:00,62.0,60.0,29.89,SSE,164,9.0,14.0,93,0.14,,---,0.23,VWS V14.01,2013-05-09 17:55:00,
2013-05-09 13:00:00,61.8,59.8,29.88,SSE,152,5.0,7.0,93,0.16,,---,0.25,VWS V14.01,2013-05-09 18:00:00,
2013-05-09 13:05:00,61.7,59.7,29.88,SE,134,7.0,14.0,93,0.18,,---,0.27,VWS V14.01,2013-05-09 18:05:00,
2013-05-09 13:10:00,61.7,60.0,29.88,SE,143,6.0,14.0,94,0.19,,---,0.28,VWS V14.01,2013-05-09 18:10:00,
2013-05-09 13:15:00,62.0,60.3,29.87,SE,143,4.0,14.0,94,0.19,,---,0.28,VWS V14.01,2013-05-09 18:15:00,
2013-05-09 13:20:00,62.0,60.6,29.88,ESE,122,4.0,14.0,95,0.20,,---,0.29,VWS V14.01,2013-05-09 18:20:00,
2013-05-09 13:25:00,61.6,59.9,29.87,SSE,157,5.0,14.0,94,0.21,,---,0.30,VWS V14.01,2013-05-09 18:25:00,
2013-05-09 13:30:00,61.2,59.5,29.87,SSE,160,6.0,10.0,94,0.15,,---,0.30,VWS V14.01,2013-05-09 18:30:00,
2013-05-09 13:35:00,60.9,59.5,29.87,ESE,123,4.0,13.0,95,0.15,,---,0.30,VWS V14.01,2013-05-09 18:35:00,
2013-05-09 13:40:00,60.7,59.0,29.88,ESE,123,7.0,13.0,94,0.16,,---,0.31,VWS V14.01,2013-05-09 18:40:00,
2013-05-09 13:45:00,60.6,59.2,29.88,SW,225,4.0,13.0,95,0.17,,---,0.32,VWS V14.01,2013-05-09 18:45:00,
2013-05-09 13:50:00,60.6,59.2,29.88,SE,146,4.0,13.0,95,0.17,,---,0.32,VWS V14.01,2013-05-09 18:50:00,
2013-05-09 13:55:00,60.7,59.3,29.88,SSE,149,0.0,13.0,95,0.17,,---,0.32,VWS V14.01,2013-05-09 18:55:00,
2013-05-09 14:00:00,60.9,59.5,29.87,ESE,118,0.0,5.0,95,0.08,,---,0.32,VWS V14.01,2013-05-09 19:00:00,
2013-05-09 14:05:00,61.3,60.2,29.87,ESE,123,5.0,13.0,96,0.08,,---,0.32,VWS V14.01,2013-05-09 19:05:00,
2013-05-09 14:10:00,61.6,60.5,29.87,SE,134,0.0,13.0,96,0.09,,---,0.33,VWS V14.01,2013-05-09 19:10:00,
2013-05-09 14:15:00,61.7,60.5,29.87,SE,126,4.0,13.0,96,0.09,,---,0.33,VWS V14.01,2013-05-09 19:15:00,
2013-05-09 14:20:00,61.8,60.7,29.87,SE,132,6.0,6.0,96,0.09,,---,0.33,VWS V14.01,2013-05-09 19:20:00,
2013-05-09 14:25:00,61.9,60.8,29.87,SE,141,0.0,16.0,96,0.09,,---,0.33,VWS V14.01,2013-05-09 19:25:00,
2013-05-09 14:30:00,62.0,60.8,29.87,SSE,150,5.0,15.0,96,0.03,,---,0.33,VWS V14.01,2013-05-09 19:30:00,
2013-05-09 14:35:00,62.0,60.8,29.86,SE,139,4.0,20.0,96,0.03,,---,0.33,VWS V14.01,2013-05-09 19:35:00,
2013-05-09 14:40:00,62.1,61.0,29.86,SE,134,4.0,20.0,96,0.03,,---,0.33,VWS V14.01,2013-05-09 19:40:00,
2013-05-09 14:45:00,62.2,61.0,29.86,SSE,152,2.0,20.0,96,0.03,,---,0.33,VWS V14.01,2013-05-09 19:45:00,
2013-05-09 14:50:00,62.2,61.0,29.85,SE,143,3.0,20.0,96,0.04,,---,0.34,VWS V14.01,2013-05-09 19:50:00,
2013-05-09 14:55:00,62.3,61.2,29.85,SE,146,4.0,20.0,96,0.04,,---,0.34,VWS V14.01,2013-05-09 19:55:00,
2013-05-09 15:00:00,62.3,61.2,29.85,SSW,196,2.0,5.0,96,0.02,,---,0.34,VWS V14.01,2013-05-09 20:00:00,
2013-05-09 15:05:00,62.5,61.3,29.84,SSE,161,4.0,10.0,96,0.02,,---,0.34,VWS V14.01,2013-05-09 20:05:00,
2013-05-09 15:10:00,62.7,61.5,29.84,ESE,118,2.0,14.0,96,0.02,,---,0.34,VWS V14.01,2013-05-09 20:10:00,
2013-05-09 15:15:00,62.9,61.8,29.84,SE,145,5.0,14.0,96,0.02,,---,0.34,VWS V14.01,2013-05-09 20:15:00,
2013-05-09 15:20:00,63.0,61.8,29.84,ESE,110,7.0,14.0,96,0.02,,---,0.34,VWS V14.01,2013-05-09 20:20:00,
2013-05-09 15:25:00,63.2,62.0,29.83,SE,144,5.0,14.0,96,0.03,,---,0.35,VWS V14.01,2013-05-09 20:25:00,
2013-05-09 15:30:00,63.3,62.1,29.83,SE,135,0.0,10.0,96,0.02,,---,0.35,VWS V14.01,2013-05-09 20:30:00,
2013-05-09 15:35:00,63.3,62.1,29.83,SSE,153,6.0,10.0,96,0.02,,---,0.35,VWS V14.01,2013-05-09 20:35:00,
2013-05-09 15:40:00,63.4,62.2,29.83,SE,137,5.0,13.0,96,0.02,,---,0.35,VWS V14.01,2013-05-09 20:40:00,
2013-05-09 15:45:00,63.5,62.3,29.83,SE,142,5.0,13.0,96,0.02,,---,0.35,VWS V14.01,2013-05-09 20:45:00,
2013-05-09 15:50:00,63.5,62.3,29.83,SSE,161,0.0,13.0,96,0.02,,---,0.35,VWS V14.01,2013-05-09 20:50:00,
2013-05-09 15:55:00,63.7,62.5,29.82,South,179,4.0,13.0,96,0.02,,---,0.35,VWS V14.01,2013-05-09 20:55:00,
2013-05-09 16:00:00,63.7,62.5,29.82,ESE,120,5.0,6.0,96,0.01,,---,0.35,VWS V14.01,2013-05-09 21:00:00,
2013-05-09 16:05:00,63.7,62.5,29.82,SE,140,5.0,12.0,96,0.01,,---,0.35,VWS V14.01,2013-05-09 21:05:00,
2013-05-09 16:10:00,63.7,62.5,29.82,SSE,162,3.0,12.0,96,0.01,,---,0.35,VWS V14.01,2013-05-09 21:10:00,
2013-05-09 16:15:00,63.8,62.6,29.82,SSE,147,4.0,12.0,96,0.01,,---,0.35,VWS V14.01,2013-05-09 21:15:00,
2013-05-09 16:20:00,63.7,62.5,29.82,SE,126,1.0,12.0,96,0.01,,---,0.35,VWS V14.01,2013-05-09 21:20:00,
2013-05-09 16:25:00,63.8,62.6,29.82,SSE,155,10.0,12.0,96,0.01,,---,0.35,VWS V14.01,2013-05-09 21:25:00,
2013-05-09 16:30:00,63.8,62.6,29.82,SE,131,4.0,6.0,96,0.00,,---,0.35,VWS V14.01,2013-05-09 21:30:00,
2013-05-09 16:35:00,63.7,62.2,29.82,SSE,155,11.0,11.0,95,0.00,,---,0.35,VWS V14.01,2013-05-09 21:35:00,
2013-05-09 16:40:00,63.7,62.2,29.82,SE,139,2.0,12.0,95,0.00,,---,0.35,VWS V14.01,2013-05-09 21:40:00,
2013-05-09 16:45:00,63.6,62.2,29.82,South,189,0.0,12.0,95,0.00,,---,0.35,VWS V14.01,2013-05-09 21:45:00,
2013-05-09 16:50:00,63.6,62.2,29.82,SSE,148,7.0,12.0,95,0.00,,---,0.35,VWS V14.01,2013-05-09 21:50:00,
2013-05-09 16:55:00,63.6,62.2,29.82,SSE,165,5.0,12.0,95,0.00,,---,0.35,VWS V14.01,2013-05-09 21:55:00,
2013-05-09 17:00:00,63.7,62.5,29.82,SSE,155,7.0,7.0,96,0.00,,---,0.35,VWS V14.01,2013-05-09 22:00:00,
2013-05-09 17:05:00,63.7,62.5,29.81,SSE,164,6.0,9.0,96,0.00,,---,0.35,VWS V14.01,2013-05-09 22:05:00,
2013-05-09 17:10:00,63.8,62.6,29.82,SSE,153,4.0,9.0,96,0.00,,---,0.35,VWS V14.01,2013-05-09 22:10:00,
2013-05-09 17:15:00,63.8,62.6,29.82,South,188,5.0,9.0,96,0.00,,---,0.35,VWS V14.01,2013-05-09 22:15:00,
2013-05-09 17:20:00,63.8,62.6,29.82,SE,145,1.0,9.0,96,0.00,,---,0.35,VWS V14.01,2013-05-09 22:20:00,
2013-05-09 17:25:00,63.8,62.6,29.81,SSE,151,1.0,9.0,96,0.00,,---,0.35,VWS V14.01,2013-05-09 22:25:00,
2013-05-09 17:30:00,63.9,62.7,29.81,SSW,196,0.0,7.0,96,0.00,,---,0.35,VWS V14.01,2013-05-09 22:30:00,
2013-05-09 17:35:00,63.8,62.6,29.81,SSE,156,2.0,7.0,96,0.00,,---,0.35,VWS V14.01,2013-05-09 22:35:00,
2013-05-09 17:40:00,63.9,62.7,29.81,SSE,167,0.0,7.0,96,0.00,,---,0.35,VWS V14.01,2013-05-09 22:40:00,
2013-05-09 17:45:00,63.9,62.7,29.81,South,175,0.0,7.0,96,0.00,,---,0.35,VWS V14.01,2013-05-09 22:45:00,
2013-05-09 17:50:00,64.0,62.8,29.81,SSE,153,1.0,7.0,96,0.00,,---,0.35,VWS V14.01,2013-05-09 22:50:00,
2013-05-09 17:55:00,64.1,62.9,29.80,SSE,165,3.0,7.0,96,0.00,,---,0.35,VWS V14.01,2013-05-09 22:55:00,
2013-05-09 18:00:00,64.2,63.0,29.80,SE,144,2.0,2.0,96,0.00,,---,0.35,VWS V14.01,2013-05-09 23:00:00,
2013-05-09 18:05:00,64.2,63.0,29.80,South,179,11.0,11.0,96,0.00,,---,0.35,VWS V14.01,2013-05-09 23:05:00,
2013-05-09 18:10:00,64.2,62.7,29.80,WSW,237,3.0,11.0,95,0.00,,---,0.35,VWS V14.01,2013-05-09 23:10:00,
2013-05-09 18:15:00,64.1,62.6,29.79,SE,142,4.0,11.0,95,0.00,,---,0.35,VWS V14.01,2013-05-09 23:15:00,
2013-05-09 18:20:00,64.0,62.5,29.80,South,184,3.0,11.0,95,0.00,,---,0.35,VWS V14.01,2013-05-09 23:20:00,
2013-05-09 18:25:00,64.0,62.5,29.80,SE,142,4.0,11.0,95,0.00,,---,0.35,VWS V14.01,2013-05-09 23:25:00,
2013-05-09 18:30:00,63.9,62.1,29.80,SSE,167,5.0,8.0,94,0.00,,---,0.35,VWS V14.01,2013-05-09 23:30:00,
2013-05-09 18:35:00,63.9,62.4,29.80,South,171,1.0,8.0,95,0.00,,---,0.35,VWS V14.01,2013-05-09 23:35:00,
2013-05-09 18:40:00,64.0,62.5,29.81,SSE,151,1.0,8.0,95,0.00,,---,0.35,VWS V14.01,2013-05-09 23:40:00,
2013-05-09 18:45:00,64.0,62.5,29.81,SSE,163,4.0,8.0,95,0.00,,---,0.35,VWS V14.01,2013-05-09 23:45:00,
2013-05-09 18:50:00,64.0,62.5,29.81,SSE,168,1.0,8.0,95,0.00,,---,0.35,VWS V14.01,2013-05-09 23:50:00,
2013-05-09 18:55:00,64.0,62.5,29.81,SSE,161,2.0,8.0,95,0.00,,---,0.35,VWS V14.01,2013-05-09 23:55:00,
2013-05-09 19:00:00,64.0,62.5,29.81,SSE,158,0.0,0.0,95,0.00,,---,0.35,VWS V14.01,2013-05-10 00:00:00,
2013-05-09 19:05:00,64.1,62.6,29.81,SSE,158,0.0,0.0,95,0.00,,---,0.35,VWS V14.01,2013-05-10 00:05:00,
2013-05-09 19:10:00,64.1,62.6,29.81,SSE,163,0.0,5.0,95,0.00,,---,0.35,VWS V14.01,2013-05-10 00:10:00,
2013-05-09 19:15:00,63.9,62.4,29.80,SSE,163,0.0,5.0,95,0.00,,---,0.35,VWS V14.01,2013-05-10 00:15:00,
2013-05-09 19:20:00,63.8,62.3,29.81,SSE,156,0.0,5.0,95,0.00,,---,0.35,VWS V14.01,2013-05-10 00:20:00,
2013-05-09 19:25:00,63.7,62.2,29.81,SSE,156,0.0,5.0,95,0.00,,---,0.35,VWS V14.01,2013-05-10 00:25:00,
2013-05-09 19:30:00,63.5,62.0,29.80,SSE,156,0.0,0.0,95,0.00,,---,0.35,VWS V14.01,2013-05-10 00:30:00,
2013-05-09 19:35:00,63.4,62.0,29.81,SSE,156,0.0,2.0,95,0.00,,---,0.35,VWS V14.01,2013-05-10 00:35:00,
2013-05-09 19:40:00,63.3,62.1,29.81,SSE,156,0.0,2.0,96,0.00,,---,0.35,VWS V14.01,2013-05-10 00:40:00,
2013-05-09 19:45:00,63.0,61.8,29.81,SSE,157,0.0,3.0,96,0.00,,---,0.35,VWS V14.01,2013-05-10 00:45:00,
2013-05-09 19:50:00,62.9,61.8,29.81,SSE,157,0.0,3.0,96,0.00,,---,0.35,VWS V14.01,2013-05-10 00:50:00,
2013-05-09 19:55:00,62.8,61.7,29.81,SSE,157,0.0,3.0,96,0.00,,---,0.35,VWS V14.01,2013-05-10 00:55:00,
2013-05-09 20:00:00,62.7,61.5,29.82,SSE,157,0.0,0.0,96,0.00,,---,0.35,VWS V14.01,2013-05-10 01:00:00,
2013-05-09 20:05:00,62.6,61.5,29.81,SSE,157,0.0,1.0,96,0.00,,---,0.35,VWS V14.01,2013-05-10 01:05:00,
2013-05-09 20:10:00,62.5,61.3,29.81,SSE,157,0.0,1.0,96,0.00,,---,0.35,VWS V14.01,2013-05-10 01:10:00,
2013-05-09 20:15:00,62.5,61.3,29.81,SSE,157,1.0,4.0,96,0.00,,---,0.35,VWS V14.01,2013-05-10 01:15:00,
2013-05-09 20:20:00,62.6,61.5,29.81,SSE,165,1.0,4.0,96,0.00,,---,0.35,VWS V14.01,2013-05-10 01:20:00,
2013-05-09 20:25:00,62.6,61.5,29.81,South,169,0.0,5.0,96,0.00,,---,0.35,VWS V14.01,2013-05-10 01:25:00,
2013-05-09 20:30:00,62.4,61.2,29.80,South,169,0.0,1.0,96,0.00,,---,0.35,VWS V14.01,2013-05-10 01:30:00,
2013-05-09 20:35:00,62.4,61.2,29.80,South,169,0.0,4.0,96,0.00,,---,0.35,VWS V14.01,2013-05-10 01:35:00,
2013-05-09 20:40:00,62.4,61.2,29.80,South,169,0.0,4.0,96,0.00,,---,0.35,VWS V14.01,2013-05-10 01:40:00,
2013-05-09 20:45:00,62.4,61.2,29.80,South,169,0.0,4.0,96,0.00,,---,0.35,VWS V14.01,2013-05-10 01:45:00,
2013-05-09 20:50:00,62.4,61.5,29.80,South,169,0.0,4.0,97,0.00,,---,0.35,VWS V14.01,2013-05-10 01:50:00,
2013-05-09 20:55:00,62.4,61.5,29.79,South,169,0.0,4.0,97,0.00,,---,0.35,VWS V14.01,2013-05-10 01:55:00,
2013-05-09 21:00:00,62.4,61.5,29.79,South,169,1.0,1.0,97,0.00,,---,0.35,VWS V14.01,2013-05-10 02:00:00,
2013-05-09 21:05:00,62.3,61.4,29.79,South,169,0.0,5.0,97,0.00,,---,0.35,VWS V14.01,2013-05-10 02:05:00,
2013-05-09 21:10:00,62.1,61.2,29.80,South,169,0.0,5.0,97,0.00,,---,0.35,VWS V14.01,2013-05-10 02:10:00,
2013-05-09 21:15:00,62.0,61.1,29.80,South,169,1.0,5.0,97,0.00,,---,0.35,VWS V14.01,2013-05-10 02:15:00,
2013-05-09 21:20:00,62.1,61.2,29.80,South,169,0.0,5.0,97,0.00,,---,0.35,VWS V14.01,2013-05-10 02:20:00,
2013-05-09 21:25:00,62.0,61.1,29.80,South,169,0.0,5.0,97,0.00,,---,0.35,VWS V14.01,2013-05-10 02:25:00,
2013-05-09 21:30:00,62.0,61.1,29.80,South,169,0.0,0.0,97,0.01,,---,0.36,VWS V14.01,2013-05-10 02:30:00,
2013-05-09 21:35:00,62.0,61.1,29.80,SW,215,1.0,4.0,97,0.01,,---,0.36,VWS V14.01,2013-05-10 02:35:00,
2013-05-09 21:40:00,62.0,61.1,29.80,SW,215,1.0,4.0,97,0.01,,---,0.36,VWS V14.01,2013-05-10 02:40:00,
2013-05-09 21:45:00,62.0,61.1,29.80,South,188,0.0,5.0,97,0.01,,---,0.36,VWS V14.01,2013-05-10 02:45:00,
2013-05-09 21:50:00,62.0,61.1,29.80,SSW,198,0.0,5.0,97,0.01,,---,0.36,VWS V14.01,2013-05-10 02:50:00,
2013-05-09 21:55:00,62.0,61.1,29.80,SSW,207,0.0,6.0,97,0.01,,---,0.36,VWS V14.01,2013-05-10 02:55:00,
2013-05-09 22:00:00,62.0,61.1,29.80,South,180,0.0,4.0,97,0.01,,---,0.36,VWS V14.01,2013-05-10 03:00:00,
2013-05-09 22:05:00,62.0,61.1,29.81,WSW,238,0.0,8.0,97,0.01,,---,0.36,VWS V14.01,2013-05-10 03:05:00,
2013-05-09 22:10:00,61.9,61.0,29.81,WSW,249,0.0,9.0,97,0.01,,---,0.36,VWS V14.01,2013-05-10 03:10:00,
2013-05-09 22:15:00,62.0,61.1,29.81,West,266,0.0,9.0,97,0.01,,---,0.36,VWS V14.01,2013-05-10 03:15:00,
2013-05-09 22:20:00,62.1,61.2,29.80,SW,234,5.0,9.0,97,0.01,,---,0.36,VWS V14.01,2013-05-10 03:20:00,
2013-05-09 22:25:00,62.2,61.3,29.80,WSW,244,5.0,11.0,97,0.01,,---,0.36,VWS V14.01,2013-05-10 03:25:00,
2013-05-09 22:30:00,62.3,61.4,29.80,West,262,2.0,7.0,97,0.00,,---,0.36,VWS V14.01,2013-05-10 03:30:00,
2013-05-09 22:35:00,62.3,61.4,29.80,WSW,246,5.0,9.0,97,0.00,,---,0.36,VWS V14.01,2013-05-10 03:35:00,
2013-05-09 22:40:00,62.3,61.4,29.80,SSW,205,1.0,10.0,97,0.00,,---,0.36,VWS V14.01,2013-05-10 03:40:00,
2013-05-09 22:45:00,62.3,61.4,29.80,WSW,242,8.0,10.0,97,0.00,,---,0.36,VWS V14.01,2013-05-10 03:45:00,
2013-05-09 22:50:00,62.3,61.4,29.80,SW,229,6.0,10.0,97,0.00,,---,0.36,VWS V14.01,2013-05-10 03:50:00,
2013-05-09 22:55:00,62.2,61.3,29.80,WSW,240,2.0,10.0,97,0.00,,---,0.36,VWS V14.01,2013-05-10 03:55:00,
2013-05-09 23:00:00,62.2,61.3,29.80,SW,229,8.0,8.0,97,0.00,,---,0.36,VWS V14.01,2013-05-10 04:00:00,
2013-05-09 23:01:00,62.2,61.3,29.80,West,261,5.0,10.0,97,0.00,,---,0.36,VWS V14.01,2013-05-10 04:01:00,
2013-05-09 23:06:00,62.2,61.3,29.80,SW,229,5.0,10.0,97,0.00,,---,0.36,VWS V14.01,2013-05-10 04:06:00,
2013-05-09 23:11:00,62.3,61.4,29.80,West,272,3.0,10.0,97,0.00,,---,0.36,VWS V14.01,2013-05-10 04:11:00,
2013-05-09 23:16:00,62.3,61.4,29.80,West,279,4.0,11.0,97,0.00,,---,0.36,VWS V14.01,2013-05-10 04:16:00,
2013-05-09 23:21:00,62.2,61.3,29.80,SSW,212,7.0,11.0,97,0.00,,---,0.36,VWS V14.01,2013-05-10 04:21:00,
2013-05-09 23:26:00,62.2,61.3,29.80,SW,232,1.0,11.0,97,0.00,,---,0.36,VWS V14.01,2013-05-10 04:26:00,
2013-05-09 23:30:00,62.1,61.2,29.80,SW,233,1.0,11.0,97,0.00,,---,0.36,VWS V14.01,2013-05-10 04:30:00,
2013-05-09 23:31:00,62.1,61.2,29.79,West,265,5.0,5.0,97,0.00,,---,0.36,VWS V14.01,2013-05-10 04:31:00,
2013-05-09 23:36:00,62.0,61.1,29.80,WSW,245,2.0,5.0,97,0.00,,---,0.36,VWS V14.01,2013-05-10 04:36:00,
2013-05-09 23:41:00,62.0,61.1,29.80,SW,217,0.0,6.0,97,0.00,,---,0.36,VWS V14.01,2013-05-10 04:41:00,
2013-05-09 23:46:00,61.9,61.0,29.80,SW,218,2.0,6.0,97,0.00,,---,0.36,VWS V14.01,2013-05-10 04:46:00,
2013-05-09 23:51:00,61.8,60.9,29.80,South,175,6.0,8.0,97,0.00,,---,0.36,VWS V14.01,2013-05-10 04:51:00,
2013-05-09 23:56:00,61.7,60.8,29.80,WSW,248,1.0,8.0,97,0.00,,---,0.36,VWS V14.01,2013-05-10 04:56:00,